Flag for Sweden Weather past 2 weeks in Södertälje, Sweden

Now
48 °F

Cool.


Feels Like: 48 °F
Forecast: 58 / 72 °F
Wind: No wind

Location: Stockholm Bromma Airport

Current Time: Aug 4, 2015 at 3:45:37 AM

Latest Report: Aug 4, 2015 at 3:20 AM


Visibility: N/A

Pressure: 30.18 "Hg

Humidity: 100%

Dew point: 48 °F

Location of SödertäljeLocation

Historic Weather in Södertälje — Graph

°F

Södertälje temperature yesterday

Maximum temperature yesterday: 68 °F (at 1:50 PM)
Minimum temperature yesterday: 54 °F (at 4:20 AM)
Average temperature yesterday: 61 °F

Past Weeks' High & Low Weather Summary

 TemperatureHumidityPressure
High68 °F (Jul 20, 6:20 PM)100% (Jul 21, 12:50 AM)30.18 "Hg (Jul 21, 12:50 AM)
Low48 °F (Jul 25, 3:20 AM)35% (Jul 24, 3:50 PM)29.33 "Hg (Jul 26, 5:50 PM)
Average60 °F76%29.70 "Hg
* Reported Jul 20 2:20 AM — Aug 4 2:20 AM, Södertälje, Weather by CustomWeather, © 2015

Note: Actual official high and low records may vary slightly from our data, if they occured in-between our weather recording intervals... More about our weather records

Advertising

Södertälje weather history for previous 24 hours

 ConditionsComfort  
Time TempWeatherWind HumidityBarometerVisibility
2:20 AM
Tue, Aug 4
50 °FCool.No wind94%30.18 "HgN/A
1:50 AM50 °FCool.No wind100%30.18 "HgN/A
1:20 AM52 °FCool.No wind94%30.18 "HgN/A
12:50 AM52 °FCool.No wind100%30.18 "HgN/A
12:20 AM52 °FCool.2 mph100%30.18 "HgN/A
11:20 PM
Mon, Aug 3
54 °FCool.2 mph94%30.15 "HgN/A
10:50 PM55 °FCool.3 mph88%30.15 "HgN/A
10:20 PM55 °FCool.3 mph88%30.15 "HgN/A
9:50 PM59 °FSunny.6 mph77%30.15 "Hg10 mi
9:20 PM61 °FSunny.3 mph72%30.15 "Hg10 mi
8:50 PM63 °FSunny.No wind64%30.15 "Hg10 mi
8:20 PM64 °FSunny.3 mph56%30.15 "Hg10 mi
7:50 PM64 °FSunny.6 mph60%30.15 "Hg10 mi
7:20 PM64 °FSunny.5 mph56%30.15 "Hg10 mi
6:50 PM68 °FPassing clouds.6 mph46%30.15 "HgN/A
6:20 PM68 °FPassing clouds.5 mph46%30.15 "HgN/A
5:50 PM68 °FSunny.6 mph46%30.15 "Hg10 mi
5:20 PM68 °FSunny.7 mph49%30.15 "Hg10 mi
4:50 PM68 °FPassing clouds.9 mph46%30.15 "HgN/A
4:20 PM68 °FPassing clouds.9 mph46%30.15 "HgN/A
3:50 PM68 °FPassing clouds.7 mph46%30.15 "HgN/A
3:20 PM68 °FPassing clouds.8 mph46%30.15 "HgN/A
2:50 PM68 °FSunny.9 mph46%30.15 "Hg10 mi
2:20 PM68 °FPassing clouds.7 mph49%30.15 "HgN/A
1:50 PM68 °FPassing clouds.7 mph49%30.15 "HgN/A
1:20 PM66 °FPassing clouds.6 mph52%30.15 "HgN/A
12:50 PM66 °FPassing clouds.8 mph52%30.15 "HgN/A
12:20 PM66 °FPassing clouds.9 mph56%30.15 "HgN/A
11:50 AM64 °FSunny.9 mph60%30.15 "Hg10 mi
11:20 AM63 °FSunny.9 mph64%30.12 "Hg10 mi
10:50 AM63 °FPassing clouds.9 mph64%30.12 "HgN/A
10:20 AM61 °FPassing clouds.8 mph63%30.12 "HgN/A
9:50 AM61 °FSunny.8 mph68%30.12 "Hg10 mi
9:20 AM61 °FPassing clouds.6 mph68%30.09 "HgN/A
8:50 AM59 °FPassing clouds.7 mph68%30.09 "HgN/A
8:20 AM59 °FPassing clouds.7 mph68%30.09 "HgN/A
7:50 AM57 °FSunny.8 mph72%30.09 "Hg10 mi
7:20 AM57 °FSunny.8 mph77%30.09 "Hg10 mi
6:50 AM57 °FSunny.9 mph77%30.07 "Hg10 mi
6:20 AM55 °FSunny.7 mph82%30.07 "Hg10 mi
5:50 AM55 °FSunny.8 mph82%30.07 "Hg10 mi
5:20 AM54 °FClear.10 mph88%30.07 "Hg10 mi
4:50 AM54 °FCool.9 mph88%30.07 "HgN/A
4:20 AM54 °FCool.9 mph88%30.07 "HgN/A
3:50 AM55 °FCool.8 mph82%30.07 "HgN/A
3:20 AM55 °FCool.7 mph82%30.04 "HgN/A
Weather by CustomWeather, © 2015

See weather overviewHow to use our weather pages